View from above orbital plane
|
View from above satellite
|
Ground track
|
The orbit data is extracted from the following two-line orbital elements,
1 14453U 83109B 21022.78350087 .00000036 00000-0 94991-5 0 9999
2 14453 81.1646 222.7343 0104263 217.0291 142.3663 14.24742362934787
Epoch (UTC): | 22 January 2021 18:48:14 |
Eccentricity: | 0.0104263 |
inclination: | 81.1646° |
perigee height: | 734 km |
apogee height: | 884 km |
right ascension of ascending node: | 222.7343° |
argument of perigee: | 217.0291° |
revolutions per day: | 14.24742362 |
mean anomaly at epoch: | 142.3663° |
orbit number at epoch: | 93478 |
The dashed part of the orbit path shows where the satellite is in the earth's shadow,
|
|